www.pogodaiklimat.ru

Погода и климат >> Архив погоды >> Беларусь >> Бобруйск


АРХИВ ПОГОДЫ в Бобруйске

Время (UTC), дата Ветер
(напр.,м/с)
 
Видим.   Явления Облачность Т
(С)
Тd
(С)
f
(%)
Тe
(С)
Тes
(С)
Комфортность P
(гПа)
Po
(гПа)
Тmin
(С)
Tmax
(С)
R
(мм)
R24
(мм)
S
(см)
15 13.08 СЗ 6-11
{12}
15 км 8/0
[Ac trans]
+23.4 +19.3 78 +30 +31 очень
душно
1010.1 992.3
18 13.08 З 2
{11}
10 км 8/0
[Ac trans Ci fib]
+21.1 +19.0 88 +25 +25 комфорт 1012.4 994.4 +26.4 7
21 13.08 З 2 10 км ясно +18.4 +17.3 93 +20 +20 тепло 1013.5 995.2
00 14.08 СЗ 1 6000 м туман поземный 8/0
[Ci fib]
+16.2 +15.9 98 +17 +17 тепло 1014.3 995.9
03 14.08 штиль 0 300 м туман ясно +13.6 +13.6 100 +13 +13 по сезону 1014.8 996.2
06 14.08 В 1 8000 м дымка {туман} 9/0
[Ac trans]
+17.5 +17.0 97 +19 +21 тепло 1014.9 996.6 +12.8
09 14.08 В 1 8000 м слаб. ливневой дождь 9/8 500 м
[Cb calv Ac und]
+18.7 +16.8 89 +21 +23 комфорт 1015.6 997.3
12 14.08 СЗ 2 6000 м слаб. ливневой дождь 9/8 480 м
[Cb calv Ac und]
+17.7 +17.1 96 +18 +20 холодно 1013.2 994.9
15 14.08 В 3 8000 м слаб. ливневой дождь {гроза} 9/8 600 м
[Cb calv Ac und]
+17.0 +16.5 97 +17 +17 прохладно 1008.8 990.6
18 14.08 С 3 2800 м гроза, ливневой дождь 10/10 240 м
[Cb calv]
+15.8 +15.5 98 +15 +15 прохладно 1008.4 990.1 +20.3 26
21 14.08 СЗ 3 5000 м слаб. морось {гроза} 10/10 240 м
[St]
+14.9 +14.7 99 +14 +14 по сезону 1010.0 991.6
00 15.08 СЗ 5
{12}
9000 м дымка {гроза, ливн. осадки} 10/10 270 м
[Sc]
+13.3 +12.5 95 +11 +11 по сезону 1012.3 993.7
03 15.08 СЗ 3
{10}
9000 м дымка 9/3 300 м
[Sc Ac trans]
+12.2 +11.6 96 +10 +10 прохладно 1013.6 994.9
06 15.08 СЗ 4 10 км 9/5 300 м
[Sc Ac und]
+13.2 +11.9 92 +11 +12 холодно 1014.8 996.2 +12.2 5
09 15.08 СЗ 2 10 км 9/5 300 м
[Sc Ac und]
+15.2 +12.1 82 +15 +18 холодно 1016.1 997.5
12 15.08 С 2 10 км 9/4 300 м
[Sc Ac trans]
+15.9 +12.6 81 +16 +19 очень
холодно
1016.1 997.5
15 15.08 С 3 17 км 8/3 600 м
[Cu med, cong Ac trans Ci fib]
+18.2 +11.7 66 +19 +20 по сезону 1015.0 996.7
18 15.08 штиль 0 10 км 5/0
[Ci fib]
+14.7 +12.7 88 +14 +14 прохладно 1015.6 997.1 +18.5
21 15.08 З 1 1900 м дымка 3/0
[Ac trans]
+11.7 +11.3 97 +11 +11 прохладно 1016.1 997.4
00 16.08 штиль 0 3800 м дымка 3/0
[Ac trans]
+9.3 +9.0 98 +8 +8 прохладно 1016.1 997.2
03 16.08 штиль 0 7000 м дымка 8/0
[Ac trans Ci fib]
+9.5 +9.3 99 +9 +9 холодно 1015.9 997.0
06 16.08 С 3 8000 м дымка 8/0
[Ac trans]
+11.9 +11.5 97 +10 +12 холодно 1015.8 997.1 +8.9
09 16.08 С 2 20 км 9/0
[Ac trans]
+15.2 +12.9 86 +15 +21 прохладно 1015.7 997.2
12 16.08 В 1 20 км 8/5 300 м
[Sc Ac trans]
+18.0 +12.9 72 +19 +23 прохладно 1015.4 997.1
15 16.08 СВ 2 20 км 8/4 600 м
[Cu hum Ac trans]
+19.1 +12.6 66 +21 +22 комфорт 1014.8 996.5
18 16.08 штиль 0 20 км 3/0
[Ac trans]
+13.7 +11.7 88 +13 +13 прохладно 1015.5 996.9 +19.6
21 16.08 З 1 10 км туман поземный ясно +9.7 +9.5 99 +9 +9 холодно 1016.7 997.7
00 17.08 штиль 0 10 км туман поземный ясно +8.3 +8.1 99 +7 +7 холодно 1016.5 997.5
03 17.08 штиль 0 10 км туман поземный ясно +6.9 +6.5 97 +6 +6 очень
холодно
1016.3 997.2
06 17.08 С 3 15 км ясно +15.5 +10.5 72 +15 +19 по сезону 1015.9 997.4 +6.8
09 17.08 СВ 5 20 км 5/3 600 м
[Cu hum Ac trans]
+20.1 +12.6 62 +22 +26 комфорт 1014.8 996.6
12 17.08 С 4 20 км 9/4 300 м
[Sc Ac trans]
+19.9 +11.9 60 +22 +24 комфорт 1014.1 995.9
15 17.08 С 3 20 км 9/0
[Ac trans]
+19.2 +12.0 63 +21 +21 комфорт 1013.9 995.6
18 17.08 СЗ 2 20 км 4/0
[Ac trans]
+15.5 +11.1 75 +15 +15 по сезону 1014.1 995.6 +20.8
21 17.08 ЮЗ 1 9000 м дымка ясно +10.9 +10.3 96 +10 +10 прохладно 1013.9 995.1
00 18.08 З 1 8000 м дымка ясно +9.4 +9.3 99 +9 +9 прохладно 1013.9 995.0
03 18.08 ЮЗ 2 8000 м туман поземный ясно +8.9 +8.5 97 +7 +7 холодно 1013.7 994.8
06 18.08 С 2 12 км ясно +16.3 +12.1 76 +16 +21 по сезону 1012.9 994.5 +8.6
09 18.08 СЗ 5 20 км 3/1 600 м
[Cu hum Ac trans]
+20.7 +11.1 54 +23 +27 комфорт 1013.0 994.8
12 18.08 СЗ 4 20 км 3/3 600 м
[Cu hum]
+23.1 +9.1 41 +25 +29 комфорт 1012.5 994.5
15 18.08 З 2 20 км ясно +24.3 +10.2 41 +25 +28 комфорт 1012.9 995.0
18 18.08 штиль 0 10 км ясно +14.9 +12.8 87 +15 +15 по сезону 1014.1 995.6 +24.5
21 18.08 штиль 0 10 км туман поземный ясно +11.7 +11.4 98 +11 +11 прохладно 1015.3 996.6
00 19.08 штиль 0 10 км туман поземный ясно +10.3 +9.9 97 +9 +9 прохладно 1015.6 996.8
03 19.08 штиль 0 10 км туман поземный ясно +10.2 +9.8 97 +9 +9 прохладно 1016.4 997.5
06 19.08 ЮВ 1 20 км ясно +20.0 +13.7 67 +23 +28 комфорт 1016.6 998.3 +9.7
09 19.08 ЮЗ 2 20 км ясно +26.2 +15.0 50 +29 +41 жарко 1016.3 998.4
12 19.08 ЮЗ 2 20 км 3/3 600 м
[Cu hum]
+28.2 +14.4 43 +30 +38 жарко 1016.4 998.6
15 19.08 ЮЗ 2 20 км ясно +28.1 +15.4 46 +31 +33 душно 1016.7 998.9
18 19.08 В 1 15 км ясно +21.1 +16.9 77 +25 +25 комфорт 1017.7 999.5 +28.9
21 19.08 Ю 1 12 км ясно +19.1 +16.0 82 +22 +22 комфорт 1018.4 1000.1
00 20.08 штиль 0 15 км 3/0
[Ac trans]
+17.8 +14.5 81 +18 +18 тепло 1018.6 1000.2
03 20.08 СВ 4 15 км 9/5 300 м
[Cb calv Ac und]
+18.4 +16.6 89 +19 +19 тепло 1020.2 1001.8
06 20.08 В 3 15 км {ливн. осадки} 9/3 300 м
[Cb calv Ac trans]
+21.6 +17.2 76 +26 +27 душно 1020.7 1002.5 +17.1 0.0
09 20.08 ЮВ 2 7000 м слаб. ливневой дождь 9/8 420 м
[Cb calv Ac und]
+18.7 +17.9 95 +20 +22 тепло 1022.3 1003.9

 

Местоположение метеостанции Бобруйск (Могилевская область, Беларусь): широта 53.21 долгота 29.13 высота над уровнем моря 156 м.

В архиве по умолчанию представлена погода в Бобруйске за последнюю неделю. Архивные данные за месяц целиком и за предыдущие месяцы, начиная с января 2011 года, Вы можете получить, выбрав интересующий диапазон дат из раскрывающегося списка и нажав кнопку "Ввод!".


*Определитесь, кто Вы:
робот инопланетянин человек

Внимание! Время в таблицах - всемирное. Для получения местного времени необходимо прибавить поправку, которая равна 3 ч.

Смотрите также архив погоды в соседних городах и на ближайших метеорологических станциях:

Погода в Кличеве (Могилевская область, Беларусь) (35 км)
Погода в Октябре (Гомельская область, Беларусь) (67 км)
Погода в Жлобине (Гомельская область, Беларусь) (69 км)
Погода в Березино (Минская область, Беларусь) (70 км)
Погода в Марьиной Горке (Минская область, Беларусь) (72 км)
Погода в Могилеве (Могилевская область, Беларусь) (104 км)
Погода в Слуцке (Минская область, Беларусь) (107 км)
Погода в Могилев городе (Могилевская область, Беларусь) (110 км)
Погода в Василевичах (Гомельская область, Беларусь) (117 км)
Погода в Борисове (Минская область, Беларусь) (125 км)

Пояснения к столбцам:

Ветер - указаны скорость ветра в м/с - средняя за 10 мин, порывы в срок и между сроками (в фигурных скобках) и направление, откуда дует ветер: С - северный, СВ - северо-восточный, В - восточный, ЮВ - юго-восточный, Ю - южный, ЮЗ - юго-западный, З - западный, СЗ - северо-западный.
Видимость - горизонтальная дальность видимости в метрах или километрах. При видимости от 1 до 10 км при отсутствии осадков обычно наблюдается дымка, при ухудшении видимости до 1 км и менее - туман. В сухую погоду видимость может ухудшаться дымом, пылью или мглою.
Явления - указаны атмосферные явления, наблюдавшиеся в срок или в последний час перед сроком; фигурными скобками обозначены явления, наблюдавшиеся между сроками (за 1-3 часа до срока); квадратными скобками обозначены град или гололедные отложения с указанием их диаметра в мм.
Облачность - указаны через наклонную черту общая и нижняя облачность в баллах и высота нижней границы облаков в метрах; квадратными скобками обозначены формы облаков: Ci - перистые, Cs - перисто-слоистые, Cc - перисто-кучевые, Ac - высококучевые, As - высокослоистые, Sc - слоисто-кучевые, Ns - слоисто-дождевые, Cu - кучевые, Cb - кучево-дождевые. Подробнее классификацию облаков см. в Атласе облаков (PDF).
T - Температура воздуха - температура, измеренная на высоте 2 м над землей.
Td - Температура точки росы - температура, при понижении до которой содержащийся в воздухе водяной пар достигнет насыщения.
f - Относительная влажность воздуха - влажноcть воздуха, измеренная на высоте 2 м над землей.
Te - Эффективная температура - температура, которую ощущает одетый по сезону человек в тени. Характеристика душности погоды. При расчете учитывается влияние влажности воздуха и скорости ветра на теплоощущения человека.
Tes - Эффективная температура на солнце - температура, которую ощущает человек, с поправкой на солнечный нагрев. Характеристика знойности погоды. Зависит от высоты солнца над горизонтом, облачности и скорости ветра. Ночью, в пасмурную погоду, а также при ветре 12 м/с и более поправка равна нулю.
P - Атмосферное давление - приведенное к уровню моря атмосферное давление.
Po - Атмосферное давление - измеренное на уровне метеостанции атмосферное давление.
Tmin - Минимальная температура - минимум температуры воздуха на высоте 2 м над землей.
Tmax - Максимальная температура - максимум температуры воздуха на высоте 2 м над землей.
R - Количество осадков - Количество выпавших осадков за период времени, мм. При наведении курсора мыши на число - период времени, за который выпало указанное количество осадков.
R24 - Количество осадков - Количество выпавших осадков за 24 часа, мм.
S - Снежный покров - Высота снежного покрова, см. При наведении курсора мыши на число - состояние снежного покрова и степень покрытия местности в баллах.